ABOUT US
vACC Philippines is a recognized member of the VATSIM network. We are dedicated to enchancing the online experience of both local and international virtual pilots. Mandated to provide professional and realistic air traffic operations.

vACC Philippines aims to provide the most realistic air traffic system simulation service that is close to the real thing as possible when flying on the VATSIM network.


METARS

RPLL 250600Z 12007KT 080V160 9999 FEW023 BKN100 29/23 Q1011 NOSIG RMK A2985


RPVM 250600Z 05006KT 9999 FEW020 BKN100 30/24 Q1010 RMK A2983


RPMD 250600Z 20006KT 9999 FEW015CB SCT016 BKN290 30/26 Q1010 RMK A2983 CB E



AIRFIELDS COVERED


Manila (RPLL)

Subic Bay (RPLB)

Mactan-Cebu (RPVM)

Clark (RPLC)

Laoag (RPLI)


Davao (RPMD)


Bacolod (RPVB)


Zamboanga (RPMZ)


General Santos (RPMR)


Iloilo (RPVI)


Kalibo (RPVK)


Legazpi (RPLP)


Puerto Princesa (RPVP)